| time (UTC) | temp F | wind direction | speed knots | gust knots | rain 1hr in | rain 24hr in | rain mn in | humidity % | barometer mb |
| 20260504192504 | 79 | 169 | 7.0 | 14.8 | 0.00 | 0.00 | 0.00 | 62 | 1012.7 |
| 20260504192003 | 78 | 196 | 8.7 | 13.9 | 0.00 | 0.00 | 0.00 | 63 | 1012.7 |
| 20260504191521 | 78 | 142 | 7.0 | 13.9 | 0.00 | 0.00 | 0.00 | 61 | 1012.9 |
| 20260504191006 | 79 | 186 | 7.0 | 12.2 | 0.00 | 0.00 | 0.00 | 64 | 1012.9 |
| 20260504190504 | 78 | 192 | 7.0 | 13.9 | 0.00 | 0.00 | 0.00 | 64 | 1012.8 |
| 20260504190008 | 78 | 165 | 6.1 | 12.2 | 0.00 | 0.00 | 0.00 | 63 | 1013.0 |
| 20260504185507 | 77 | 197 | 7.8 | 16.5 | 0.00 | 0.00 | 0.00 | 64 | 1013.0 |
| 20260504184003 | 76 | 184 | 6.1 | 13.0 | 0.00 | 0.00 | 0.00 | 66 | 1013.1 |
| 20260504183507 | 77 | 141 | 7.8 | 13.0 | 0.00 | 0.00 | 0.00 | 66 | 1013.3 |
| 20260504183030 | 76 | 183 | 7.0 | 11.3 | 0.00 | 0.00 | 0.00 | 64 | 1013.4 |
| 20260504182514 | 76 | 159 | 5.2 | 20.0 | 0.00 | 0.00 | 0.00 | 65 | 1013.5 |
| 20260504182011 | 77 | 209 | 7.0 | 20.0 | 0.00 | 0.00 | 0.00 | 65 | 1013.7 |
| 20260504181507 | 76 | 231 | 7.0 | 12.2 | 0.00 | 0.00 | 0.00 | 64 | 1013.7 |
| 20260504181004 | 77 | 200 | 4.3 | 12.2 | 0.00 | 0.00 | 0.00 | 65 | 1013.8 |
| 20260504180506 | 76 | 225 | 6.1 | 12.2 | 0.00 | 0.00 | 0.00 | 64 | 1013.8 |
| 20260504180010 | 77 | 195 | 7.0 | 12.2 | 0.00 | 0.00 | 0.00 | 63 | 1013.8 |
| 20260504175505 | 76 | 209 | 7.8 | 12.2 | 0.00 | 0.00 | 0.00 | 64 | 1013.7 |
| 20260504175006 | 77 | 177 | 7.0 | 14.8 | 0.00 | 0.00 | 0.00 | 64 | 1013.8 |
| 20260504174514 | 77 | 227 | 7.8 | 14.8 | 0.00 | 0.00 | 0.00 | 62 | 1014.0 |
| 20260504174010 | 77 | 184 | 7.0 | 13.9 | 0.00 | 0.00 | 0.00 | 63 | 1014.2 |
| 20260504173506 | 76 | 208 | 7.0 | 17.4 | 0.00 | 0.00 | 0.00 | 64 | 1014.1 |
| 20260504173010 | 76 | 180 | 9.6 | 17.4 | 0.00 | 0.00 | 0.00 | 63 | 1014.1 |
| 20260504172507 | 77 | 215 | 8.7 | 13.9 | 0.00 | 0.00 | 0.00 | 63 | 1014.2 |
| 20260504172008 | 76 | 207 | 7.8 | 13.9 | 0.00 | 0.00 | 0.00 | 63 | 1014.3 |
| 20260504171508 | 76 | 187 | 6.1 | 13.9 | 0.00 | 0.00 | 0.00 | 65 | 1014.3 |
| 20260504170508 | 76 | 201 | 7.0 | 13.9 | 0.00 | 0.00 | 0.00 | 64 | 1014.5 |
| 20260504151010 | 71 | 198 | 9.6 | 14.8 | 0.00 | 0.00 | 0.00 | 68 | 1015.5 |
| 20260504150511 | 70 | 169 | 8.7 | 14.8 | 0.00 | 0.00 | 0.00 | 69 | 1015.4 |
| 20260504141010 | 66 | 168 | 7.0 | 12.2 | 0.00 | 0.00 | 0.00 | 75 | 1015.5 |
| 20260504140516 | 66 | 150 | 6.1 | 12.2 | 0.00 | 0.00 | 0.00 | 75 | 1015.5 |
| 20260504130508 | 60 | 158 | 3.5 | 7.0 | 0.00 | 0.00 | 0.00 | 81 | 1015.2 |
| 20260504100508 | 58 | 179 | 0.9 | 3.5 | 0.00 | 0.01 | 0.00 | 86 | 1015.3 |
| 20260504081510 | 60 | 159 | 4.3 | 6.1 | 0.00 | 0.01 | 0.00 | 80 | 1015.6 |
| 20260504081008 | 60 | 151 | 3.5 | 6.1 | 0.00 | 0.01 | 0.00 | 80 | 1015.6 |
| 20260504080507 | 60 | 172 | 3.5 | 6.1 | 0.00 | 0.01 | 0.00 | 80 | 1015.8 |
| 20260504050511 | 62 | 184 | 2.6 | 5.2 | 0.00 | 0.01 | 0.00 | 74 | 1017.7 |
| 20260504050016 | 62 | 161 | 2.6 | 7.0 | 0.00 | 0.01 | 0.00 | 73 | 1017.8 |
| 20260504045509 | 63 | 157 | 2.6 | 7.0 | 0.00 | 0.01 | 0.01 | 73 | 1017.8 |
| 20260504045009 | 63 | 167 | 2.6 | 7.0 | 0.00 | 0.01 | 0.01 | 72 | 1017.7 |
| 20260504044532 | 63 | 175 | 1.7 | 4.3 | 0.00 | 0.01 | 0.01 | 72 | 1017.8 |
| 20260504044007 | 63 | 159 | 2.6 | 6.1 | 0.00 | 0.01 | 0.01 | 71 | 1017.7 |
| 20260504043508 | 64 | 162 | 2.6 | 7.8 | 0.00 | 0.01 | 0.01 | 70 | 1017.7 |
| 20260504043030 | 64 | 153 | 4.3 | 7.8 | 0.00 | 0.01 | 0.01 | 69 | 1017.8 |
| 20260504042508 | 64 | 163 | 2.6 | 7.8 | 0.00 | 0.01 | 0.01 | 69 | 1017.9 |
| 20260504042007 | 64 | 179 | 3.5 | 7.8 | 0.00 | 0.01 | 0.01 | 68 | 1017.9 |
| 20260504041518 | 64 | 165 | 3.5 | 7.0 | 0.00 | 0.01 | 0.01 | 68 | 1017.9 |
| 20260504041010 | 65 | 178 | 4.3 | 8.7 | 0.00 | 0.01 | 0.01 | 67 | 1017.9 |
| 20260504040510 | 65 | 163 | 3.5 | 9.6 | 0.00 | 0.01 | 0.01 | 66 | 1018.0 |
| 20260504040022 | 65 | 163 | 4.3 | 9.6 | 0.00 | 0.01 | 0.01 | 65 | 1017.9 |
| 20260504035511 | 65 | 180 | 4.3 | 7.8 | 0.00 | 0.01 | 0.01 | 65 | 1017.8 |
| 20260504035010 | 65 | 179 | 2.6 | 7.8 | 0.00 | 0.01 | 0.01 | 64 | 1017.9 |
| 20260504034526 | 65 | 188 | 3.5 | 7.8 | 0.00 | 0.01 | 0.01 | 63 | 1017.8 |
| 20260504034017 | 65 | 168 | 3.5 | 9.6 | 0.00 | 0.01 | 0.01 | 63 | 1017.9 |
| 20260504033509 | 65 | 158 | 4.3 | 9.6 | 0.00 | 0.01 | 0.01 | 62 | 1017.8 |
| 20260504033023 | 65 | 135 | 3.5 | 7.8 | 0.00 | 0.01 | 0.01 | 63 | 1017.7 |
| 20260504032507 | 65 | 158 | 2.6 | 3.5 | 0.00 | 0.01 | 0.01 | 61 | 1017.6 |
| 20260504032013 | 65 | 142 | 1.7 | 3.5 | 0.00 | 0.01 | 0.01 | 62 | 1017.6 |
| 20260504031516 | 65 | 153 | 1.7 | 3.5 | 0.00 | 0.01 | 0.01 | 60 | 1017.7 |
| 20260504031007 | 65 | 146 | 2.6 | 3.5 | 0.00 | 0.01 | 0.01 | 61 | 1017.7 |
| 20260504030508 | 66 | 159 | 1.7 | 3.5 | 0.00 | 0.01 | 0.01 | 60 | 1017.6 |
| 20260504030021 | 66 | 145 | 1.7 | 3.5 | 0.00 | 0.01 | 0.01 | 60 | 1017.6 |
| 20260504025509 | 66 | 128 | 1.7 | 3.5 | 0.00 | 0.01 | 0.01 | 60 | 1017.6 |
| 20260504025005 | 66 | 159 | 1.7 | 5.2 | 0.00 | 0.01 | 0.01 | 59 | 1017.7 |
| 20260504024504 | 66 | 154 | 1.7 | 5.2 | 0.00 | 0.01 | 0.01 | 59 | 1017.6 |
| 20260504024003 | 67 | 161 | 2.6 | 4.3 | 0.00 | 0.01 | 0.01 | 59 | 1017.6 |
| 20260504023503 | 67 | 171 | 1.7 | 4.3 | 0.00 | 0.01 | 0.01 | 59 | 1017.7 |
| 20260504023007 | 67 | 148 | 1.7 | 5.2 | 0.00 | 0.01 | 0.01 | 59 | 1017.7 |
| 20260504022503 | 67 | 151 | 1.7 | 5.2 | 0.00 | 0.01 | 0.01 | 60 | 1017.6 |
| 20260504022014 | 67 | 175 | 2.6 | 5.2 | 0.00 | 0.01 | 0.01 | 59 | 1017.5 |
| 20260504021535 | 67 | 136 | 2.6 | 5.2 | 0.00 | 0.01 | 0.01 | 59 | 1017.5 |
| 20260504020527 | 67 | 148 | 2.6 | 4.3 | 0.00 | 0.01 | 0.01 | 59 | 1017.4 |
| 20260504020045 | 67 | 156 | 1.7 | 3.5 | 0.00 | 0.01 | 0.01 | 59 | 1017.4 |
| 20260504015505 | 68 | 145 | 1.7 | 3.5 | 0.00 | 0.01 | 0.01 | 58 | 1017.3 |
| 20260504015035 | 68 | 146 | 2.6 | 3.5 | 0.00 | 0.01 | 0.01 | 58 | 1017.3 |
| 20260504014555 | 68 | 146 | 1.7 | 2.6 | 0.00 | 0.01 | 0.01 | 57 | 1017.2 |
| 20260504014004 | 68 | 137 | 1.7 | 2.6 | 0.00 | 0.01 | 0.01 | 57 | 1017.3 |
| 20260504013507 | 69 | 138 | 0.9 | 2.6 | 0.00 | 0.01 | 0.01 | 55 | 1017.3 |
| 20260504013011 | 69 | 134 | 0.9 | 2.6 | 0.00 | 0.01 | 0.01 | 56 | 1017.3 |
| 20260504012505 | 69 | 147 | 0.9 | 2.6 | 0.00 | 0.01 | 0.01 | 55 | 1017.1 |
| 20260504012003 | 69 | 157 | 0.9 | 2.6 | 0.00 | 0.01 | 0.01 | 55 | 1017.2 |
| 20260504011511 | 70 | 161 | 0.9 | 4.3 | 0.00 | 0.01 | 0.01 | 53 | 1017.1 |
| 20260504011004 | 70 | 138 | 1.7 | 4.3 | 0.00 | 0.01 | 0.01 | 53 | 1017.2 |
| 20260504010510 | 71 | 152 | 2.6 | 4.3 | 0.00 | 0.01 | 0.01 | 52 | 1017.2 |
| 20260504010010 | 71 | 167 | 2.6 | 4.3 | 0.00 | 0.01 | 0.01 | 52 | 1017.1 |
| 20260504005508 | 71 | 151 | 1.7 | 4.3 | 0.00 | 0.01 | 0.01 | 52 | 1017.1 |
| 20260504005003 | 72 | 142 | 1.7 | 4.3 | 0.00 | 0.01 | 0.01 | 51 | 1017.2 |
| 20260504004514 | 72 | 147 | 1.7 | 4.3 | 0.00 | 0.01 | 0.01 | 50 | 1017.2 |
| 20260504004004 | 72 | 144 | 0.9 | 3.5 | 0.00 | 0.01 | 0.01 | 50 | 1017.2 |
| 20260504003504 | 72 | 159 | 0.9 | 4.3 | 0.00 | 0.01 | 0.01 | 49 | 1017.2 |
| 20260504003029 | 73 | 142 | 2.6 | 6.1 | 0.00 | 0.01 | 0.01 | 47 | 1017.3 |
| 20260504002505 | 73 | 144 | 2.6 | 6.1 | 0.00 | 0.01 | 0.01 | 46 | 1017.4 |
| 20260504002003 | 73 | 184 | 2.6 | 6.1 | 0.00 | 0.01 | 0.01 | 47 | 1017.4 |
| 20260504001504 | 74 | 151 | 2.6 | 6.1 | 0.00 | 0.01 | 0.01 | 46 | 1017.5 |
| 20260504001004 | 74 | 162 | 3.5 | 6.1 | 0.00 | 0.01 | 0.01 | 45 | 1017.6 |
| 20260504000507 | 74 | 157 | 3.5 | 7.8 | 0.00 | 0.01 | 0.01 | 44 | 1017.7 |
| 20260504000032 | 74 | 168 | 2.6 | 7.8 | 0.00 | 0.01 | 0.01 | 44 | 1017.7 |
| 20260503235509 | 75 | 175 | 4.3 | 7.8 | 0.00 | 0.01 | 0.01 | 44 | 1017.7 |
| 20260503235007 | 75 | 172 | 3.5 | 7.0 | 0.00 | 0.01 | 0.01 | 44 | 1017.6 |
| 20260503234512 | 76 | 146 | 3.5 | 7.0 | 0.00 | 0.01 | 0.01 | 43 | 1017.7 |
| 20260503234005 | 76 | 151 | 3.5 | 7.0 | 0.00 | 0.01 | 0.01 | 42 | 1017.7 |
| 20260503233504 | 76 | 169 | 4.3 | 7.8 | 0.00 | 0.01 | 0.01 | 41 | 1017.6 |
| 20260503233011 | 76 | 172 | 3.5 | 7.8 | 0.00 | 0.01 | 0.01 | 43 | 1017.8 |
| 20260503232510 | 76 | 173 | 3.5 | 7.8 | 0.00 | 0.01 | 0.01 | 42 | 1017.7 |
| 20260503232004 | 77 | 217 | 4.3 | 7.8 | 0.00 | 0.01 | 0.01 | 44 | 1017.6 |
| 20260503231509 | 77 | 227 | 4.3 | 8.7 | 0.00 | 0.01 | 0.01 | 42 | 1017.8 |
| 20260503231006 | 76 | 180 | 3.5 | 8.7 | 0.00 | 0.01 | 0.01 | 42 | 1017.9 |
| 20260503230507 | 77 | 184 | 4.3 | 8.7 | 0.00 | 0.01 | 0.01 | 44 | 1017.9 |
| 20260503230012 | 77 | 161 | 4.3 | 8.7 | 0.00 | 0.01 | 0.01 | 42 | 1017.9 |
| 20260503225511 | 77 | 175 | 4.3 | 7.8 | 0.00 | 0.01 | 0.01 | 42 | 1017.9 |
| 20260503225009 | 77 | 162 | 2.6 | 8.7 | 0.00 | 0.01 | 0.01 | 43 | 1017.9 |
| 20260503224509 | 77 | 202 | 3.5 | 10.4 | 0.00 | 0.01 | 0.01 | 40 | 1017.9 |
| 20260503224009 | 77 | 186 | 6.1 | 10.4 | 0.00 | 0.01 | 0.01 | 40 | 1018.0 |
| 20260503223507 | 77 | 159 | 5.2 | 11.3 | 0.00 | 0.01 | 0.01 | 41 | 1018.0 |
| 20260503223018 | 77 | 163 | 7.0 | 11.3 | 0.00 | 0.01 | 0.01 | 41 | 1018.1 |
| 20260503222505 | 77 | 153 | 3.5 | 9.6 | 0.00 | 0.01 | 0.01 | 41 | 1018.2 |
| 20260503222007 | 77 | 170 | 3.5 | 10.4 | 0.00 | 0.01 | 0.01 | 40 | 1018.1 |
| 20260503221513 | 78 | 165 | 5.2 | 10.4 | 0.00 | 0.01 | 0.01 | 42 | 1018.2 |
| 20260503221006 | 78 | 153 | 6.1 | 9.6 | 0.00 | 0.01 | 0.01 | 39 | 1018.2 |
| 20260503220504 | 78 | 142 | 4.3 | 7.8 | 0.00 | 0.01 | 0.01 | 42 | 1018.4 |
| 20260503220010 | 77 | 137 | 4.3 | 8.7 | 0.00 | 0.01 | 0.01 | 39 | 1018.4 |
| 20260503215507 | 78 | 167 | 5.2 | 8.7 | 0.00 | 0.01 | 0.01 | 38 | 1018.6 |
| 20260503215011 | 78 | 157 | 2.6 | 8.7 | 0.00 | 0.01 | 0.01 | 43 | 1018.5 |
| 20260503214524 | 78 | 159 | 5.2 | 8.7 | 0.00 | 0.01 | 0.01 | 42 | 1018.6 |
| 20260503214007 | 78 | 173 | 3.5 | 8.7 | 0.00 | 0.01 | 0.01 | 39 | 1018.9 |
| 20260503213507 | 78 | 160 | 3.5 | 12.2 | 0.00 | 0.01 | 0.01 | 41 | 1019.0 |
| 20260503213017 | 77 | 190 | 5.2 | 12.2 | 0.00 | 0.01 | 0.01 | 41 | 1019.2 |
| 20260503212512 | 77 | 169 | 5.2 | 8.7 | 0.00 | 0.01 | 0.01 | 38 | 1019.3 |
| 20260503212009 | 78 | 151 | 1.7 | 9.6 | 0.00 | 0.01 | 0.01 | 41 | 1019.4 |
| 20260503211515 | 78 | 182 | 5.2 | 9.6 | 0.00 | 0.01 | 0.01 | 40 | 1019.4 |
| 20260503211010 | 78 | 142 | 6.1 | 10.4 | 0.00 | 0.01 | 0.01 | 39 | 1019.3 |
| 20260503210505 | 78 | 168 | 4.3 | 10.4 | 0.00 | 0.01 | 0.01 | 42 | 1019.3 |
| 20260503210035 | 78 | 188 | 4.3 | 10.4 | 0.00 | 0.01 | 0.01 | 42 | 1019.4 |
| 20260503205511 | 78 | 174 | 5.2 | 8.7 | 0.00 | 0.01 | 0.01 | 42 | 1019.4 |
| 20260503205007 | 78 | 137 | 4.3 | 8.7 | 0.00 | 0.01 | 0.01 | 41 | 1019.5 |
| 20260503204518 | 77 | 148 | 4.3 | 11.3 | 0.00 | 0.01 | 0.01 | 43 | 1019.8 |
| 20260503204010 | 77 | 187 | 6.1 | 11.3 | 0.00 | 0.01 | 0.01 | 40 | 1019.7 |
| 20260503203507 | 78 | 193 | 6.1 | 9.6 | 0.00 | 0.01 | 0.01 | 42 | 1019.8 |
| 20260503203018 | 78 | 187 | 2.6 | 12.2 | 0.00 | 0.01 | 0.01 | 40 | 1019.9 |
| 20260503202508 | 78 | 183 | 5.2 | 12.2 | 0.00 | 0.01 | 0.01 | 43 | 1019.9 |
| 20260503202011 | 78 | 130 | 5.2 | 13.0 | 0.00 | 0.01 | 0.01 | 37 | 1020.0 |
| 20260503201519 | 78 | 179 | 7.0 | 13.0 | 0.00 | 0.01 | 0.01 | 39 | 1020.1 |
| 20260503201007 | 78 | 181 | 4.3 | 11.3 | 0.00 | 0.01 | 0.01 | 44 | 1020.1 |
| 20260503200508 | 78 | 239 | 3.5 | 10.4 | 0.00 | 0.01 | 0.01 | 39 | 1020.3 |
| 20260503200021 | 78 | 189 | 6.1 | 9.6 | 0.00 | 0.01 | 0.01 | 40 | 1020.3 |
| 20260503195507 | 78 | 188 | 4.3 | 9.6 | 0.00 | 0.01 | 0.01 | 38 | 1020.3 |
| 20260503195007 | 77 | 206 | 3.5 | 9.6 | 0.00 | 0.01 | 0.01 | 39 | 1020.4 |
| 20260503194515 | 77 | 143 | 5.2 | 9.6 | 0.00 | 0.01 | 0.01 | 39 | 1020.4 |
| 20260503194007 | 77 | 136 | 5.2 | 9.6 | 0.00 | 0.01 | 0.01 | 38 | 1020.5 |
| 20260503193506 | 78 | 153 | 4.3 | 10.4 | 0.00 | 0.01 | 0.01 | 38 | 1020.6 |
| 20260503193016 | 77 | 219 | 5.2 | 10.4 | 0.00 | 0.01 | 0.01 | 38 | 1020.7 |